Gibraltar, Gibraltar

2:25 PM CEST on September 29, 2016 (GMT +0200)
Gibraltar Air Base

Weather History for LXGB - December, 2012

Change the Weather History Date:

Wednesday, December 5, 2012

  Actual Average Record
Temperature  
Mean Temperature 58 °F -  
Max Temperature 62 °F 60 °F 68 °F (1999)
Min Temperature 55 °F 52 °F 44 °F (1997)
Degree Days  
Heating Degree Days 6    
Growing Degree Days 8 (Base 50)    
Moisture  
Dew Point 48 °F    
Average Humidity 68    
Maximum Humidity 82    
Minimum Humidity 46    
Precipitation  
Precipitation 0.00 in - - ()
Sea Level Pressure  
Sea Level Pressure 30.23 in    
Wind  
Wind Speed 14 mph ()    
Max Wind Speed 21 mph    
Max Gust Speed -    
Visibility 7.3 miles    
Events      
Averages and records for this station are not official NWS values.
T = Trace of Precipitation, MM = Missing Value Source: Averaged Metar Reports

Daily Weather History Graph

Daily Weather History Graph

Search for Another Location

Airport or City:

Trip Planner

Search our weather history database for the weather conditions in past years. The results will help you decide how hot, cold, wet, or windy it might be!

Date:

Astronomy

Dec. 05, 2012 Rise Set
Actual Time 8:17 AM CET 6:06 PM CET
Civil Twilight 7:49 AM CET 6:34 PM CET
Nautical Twilight 7:17 AM CET 7:06 PM CET
Astronomical Twilight 6:46 AM CET 7:38 PM CET
Moon No Moon Rise 12:42 PM CET (12/5)
Length of Visible Light 10h 45m
Length of Day
9h 48m
Waning Gibbous, 62% of the Moon is Illuminated
Dec 5
Waning Gibbous
Dec 6
Last Quarter
Dec 13
New
Dec 20
First Quarter
Dec 28
Full

Hourly Weather History & Observations

Time (CET) Temp. Dew Point Humidity Pressure Visibility Wind Dir Wind Speed Gust Speed Precip Events Conditions
12:50 AM 59 °F 52 °F 72% 30.31 in 11 mi West 20.7 mph - -   Scattered Clouds
12:50 AM 59.0 °F 51.8 °F 77% 30.30 in 6.2 mi West 20.7 mph - N/A   Partly Cloudy
1:50 AM 59.0 °F 51.8 °F 77% 30.27 in 6.2 mi West 16.1 mph - N/A   Partly Cloudy
2:50 AM 59.0 °F 51.8 °F 77% 30.27 in 6.2 mi West 19.6 mph - N/A   Mostly Cloudy
3:50 AM 59.0 °F 53.6 °F 82% 30.24 in 6.2 mi West 18.4 mph - N/A   Partly Cloudy
4:50 AM 59.0 °F 53.6 °F 82% 30.24 in 6.2 mi West 18.4 mph - N/A   Partly Cloudy
5:50 AM 59.0 °F 53.6 °F 82% 30.21 in 6.2 mi West 17.3 mph - N/A   Partly Cloudy
6:50 AM 58 °F 53 °F 78% 30.24 in 12 mi West 15.0 mph - -   Partly Cloudy
6:50 AM 59.0 °F 53.6 °F 82% 30.21 in 6.2 mi West 15.0 mph - N/A   Partly Cloudy
7:50 AM 57.2 °F 51.8 °F 82% 30.24 in 6.2 mi West 13.8 mph - N/A   Partly Cloudy
8:50 AM 57.2 °F 51.8 °F 82% 30.24 in 6.2 mi West 15.0 mph - N/A   Partly Cloudy
9:50 AM 57.2 °F 50.0 °F 77% 30.24 in 6.2 mi WNW 16.1 mph - N/A   Partly Cloudy
10:50 AM 59.0 °F 48.2 °F 67% 30.27 in 6.2 mi West 15.0 mph - N/A   Mostly Cloudy
11:50 AM 59.0 °F 44.6 °F 59% 30.27 in 6.2 mi West 15.0 mph - N/A   Scattered Clouds
12:50 PM 60 °F 45 °F 46% 30.25 in 12 mi West 17.3 mph - -   Scattered Clouds
12:50 PM 59.0 °F 44.6 °F 59% 30.24 in 6.2 mi West 17.3 mph - N/A   Scattered Clouds
1:50 PM 60.8 °F 46.4 °F 59% 30.21 in 6.2 mi West 12.7 mph - N/A   Mostly Cloudy
3:50 PM 60.8 °F 42.8 °F 52% 30.18 in 6.2 mi WNW 13.8 mph - N/A   Mostly Cloudy
4:50 PM 60.8 °F 44.6 °F 55% 30.18 in 6.2 mi West 12.7 mph - N/A   Mostly Cloudy
5:50 PM 59.0 °F 42.8 °F 55% 30.18 in 6.2 mi West 11.5 mph - N/A   Mostly Cloudy
6:50 PM 58 °F 45 °F 52% 30.21 in 19 mi West 10.4 mph - -   Scattered Clouds
6:50 PM 59.0 °F 44.6 °F 59% 30.18 in 6.2 mi West 10.4 mph - N/A   Mostly Cloudy
7:50 PM 57.2 °F 46.4 °F 67% 30.21 in 6.2 mi West 11.5 mph - N/A   Mostly Cloudy
8:50 PM 57.2 °F 44.6 °F 63% 30.21 in 6.2 mi West 11.5 mph - N/A   Mostly Cloudy
9:50 PM 55.4 °F 44.6 °F 67% 30.21 in 6.2 mi WNW 12.7 mph - N/A   Mostly Cloudy
10:50 PM 55.4 °F 44.6 °F 67% 30.21 in 6.2 mi West 10.4 mph - N/A   Mostly Cloudy
11:50 PM 55.4 °F 42.8 °F 63% 30.21 in 6.2 mi West 12.7 mph - N/A   Unknown